GW1216 Weather Reports


Display with metric or nautical units.
time (UTC)temp
F
wind
direction
speed
MPH
gust
MPH
rain 1hr
in
rain 24hr
in
rain mn
in
humidity
%
barometer
mb
20260906232245 69 245 11.0 22.0 0.00 0.00 0.00 37 1031.0
20260906231740 71 234 18.0 19.0 0.00 0.00 0.00 37 1031.0
20260906231236 71 223 11.0 19.0 0.00 0.00 0.00 37 1030.8
20260906230735 70 220 11.0 25.0 0.00 0.00 0.00 37 1031.0
20260906230229 71 226 16.0 16.0 0.00 0.00 0.00 36 1031.2
20260906225728 69 237 7.0 21.0 0.00 0.00 0.00 38 1031.2
20260906225224 69 208 5.0 16.0 0.00 0.00 0.00 38 1031.1
20260906224719 69 202 11.0 14.0 0.00 0.00 0.00 37 1031.1
20260906224216 69 217 5.0 22.0 0.00 0.00 0.00 37 1031.0
20260906223712 69 223 2.0 15.0 0.00 0.00 0.00 38 1031.0
20260906223207 70 221 10.0 15.0 0.00 0.00 0.00 38 1031.1
20260906222705 70 221 4.0 17.0 0.00 0.00 0.00 37 1031.0
20260906222204 70 203 6.0 17.0 0.00 0.00 0.00 38 1031.5
20260906221702 70 213 8.0 21.0 0.00 0.00 0.00 37 1031.1
20260906221156 70 196 7.0 18.0 0.00 0.00 0.00 36 1031.4
20260906220652 70 211 12.0 24.0 0.00 0.00 0.00 36 1031.0
20260906220148 70 211 10.0 20.0 0.00 0.00 0.00 36 1031.2
20260906215646 71 219 6.0 12.0 0.00 0.00 0.00 37 1031.1
20260906215145 70 216 5.0 21.0 0.00 0.00 0.00 36 1031.2
20260906214644 71 204 10.0 17.0 0.00 0.00 0.00 35 1031.1
20260906214138 72 244 13.0 26.0 0.00 0.00 0.00 36 1031.2
20260906213638 72 218 9.0 16.0 0.00 0.00 0.00 36 1031.1
20260906213132 71 231 16.0 21.0 0.00 0.00 0.00 36 1031.4
20260906212630 71 209 8.0 18.0 0.00 0.00 0.00 36 1031.2
20260906212126 71 209 9.0 18.0 0.00 0.00 0.00 36 1031.5
20260906211625 72 196 14.0 22.0 0.00 0.00 0.00 35 1031.5
20260906211121 73 243 2.0 13.0 0.00 0.00 0.00 34 1031.4
20260906210616 72 226 9.0 20.0 0.00 0.00 0.00 35 1031.6
20260906210111 71 224 11.0 23.0 0.00 0.00 0.00 35 1031.2
20260906205607 72 217 14.0 25.0 0.00 0.00 0.00 35 1031.5
20260906205103 70 231 7.0 21.0 0.00 0.00 0.00 36 1031.6
20260906204602 71 207 14.0 25.0 0.00 0.00 0.00 35 1031.4
20260906204057 72 242 5.0 22.0 0.00 0.00 0.00 35 1031.6
20260906203556 74 237 11.0 17.0 0.00 0.00 0.00 34 1031.6
20260906203051 71 224 7.0 19.0 0.00 0.00 0.00 36 1031.5
20260906202548 72 231 7.0 25.0 0.00 0.00 0.00 35 1031.4
20260906202047 72 221 9.0 25.0 0.00 0.00 0.00 35 1031.4
20260906201542 72 219 6.0 25.0 0.00 0.00 0.00 34 1031.6
20260906201042 79 248 12.0 20.0 0.00 0.00 0.00 31 1031.6
20260906200538 73 239 8.0 26.0 0.00 0.00 0.00 34 1031.8
20260906200033 73 230 13.0 21.0 0.00 0.00 0.00 35 1031.9
20260906195528 73 237 7.0 26.0 0.00 0.00 0.00 33 1032.0
20260906195025 73 193 7.0 21.0 0.00 0.00 0.00 34 1032.0
20260906194521 72 234 14.0 28.0 0.00 0.00 0.00 36 1032.2
20260906194016 72 226 5.0 13.0 0.00 0.00 0.00 35 1031.9
20260906193516 72 230 15.0 17.0 0.00 0.00 0.00 36 1032.2
20260906193011 71 243 5.0 13.0 0.00 0.00 0.00 37 1032.0
20260906192507 71 219 4.0 12.0 0.00 0.00 0.00 35 1032.2
20260906192005 70 246 3.0 10.0 0.00 0.00 0.00 37 1032.2
20260906191501 71 305 6.0 13.0 0.00 0.00 0.00 36 1032.4
20260906191000 69 13 4.0 9.0 0.00 0.00 0.00 38 1032.7
20260906190459 68 211 4.0 8.0 0.00 0.00 0.00 38 1032.6
20260906185954 68 249 5.0 7.0 0.00 0.00 0.00 38 1032.6
20260906185453 68 230 1.0 7.0 0.00 0.00 0.00 37 1032.6
20260906184952 68 297 3.0 6.0 0.00 0.00 0.00 37 1032.7
20260906184448 68 249 5.0 7.0 0.00 0.00 0.00 38 1032.8
20260906183943 68 231 2.0 8.0 0.00 0.00 0.00 38 1032.8
20260906183439 68 307 5.0 8.0 0.00 0.00 0.00 37 1032.9
20260906182934 68 296 2.0 7.0 0.00 0.00 0.00 37 1032.8
20260906182430 68 301 3.0 5.0 0.00 0.00 0.00 39 1032.8
20260906181926 68 312 4.0 10.0 0.00 0.00 0.00 38 1032.9
20260906181421 68 260 4.0 10.0 0.00 0.00 0.00 38 1033.1
20260906180917 68 321 5.0 7.0 0.00 0.00 0.00 38 1033.2
20260906180412 68 331 3.0 5.0 0.00 0.00 0.00 37 1033.2
20260906175909 68 308 3.0 10.0 0.00 0.00 0.00 37 1032.9
20260906175404 68 334 5.0 9.0 0.00 0.00 0.00 38 1033.2
20260906174903 71 315 3.0 7.0 0.00 0.00 0.00 36 1033.1
20260906174403 70 258 3.0 9.0 0.00 0.00 0.00 36 1033.3
20260906173857 68 38 5.0 10.0 0.00 0.00 0.00 37 1033.3
20260906173353 69 333 3.0 11.0 0.00 0.00 0.00 36 1033.3
20260906172852 69 216 4.0 12.0 0.00 0.00 0.00 35 1033.6
20260906172348 68 189 2.0 10.0 0.00 0.00 0.00 35 1033.5
20260906171843 69 95 5.0 8.0 0.00 0.00 0.00 36 1033.3
20260906171338 67 84 3.0 12.0 0.00 0.00 0.00 36 1033.5
20260906170833 67 114 9.0 13.0 0.00 0.00 0.00 36 1033.7
20260906170329 67 88 4.0 14.0 0.00 0.00 0.00 35 1033.6
20260906165826 66 109 7.0 10.0 0.00 0.00 0.00 36 1033.7
20260906165324 64 66 6.0 9.0 0.00 0.00 0.00 37 1033.7
20260906164820 64 115 6.0 8.0 0.00 0.00 0.00 37 1034.0
20260906164319 64 112 4.0 11.0 0.00 0.00 0.00 37 1033.9
20260906163815 63 88 3.0 11.0 0.00 0.00 0.00 39 1033.7
20260906163311 64 124 4.0 7.0 0.00 0.00 0.00 37 1033.9
20260906162809 65 51 4.0 6.0 0.00 0.00 0.00 36 1033.7
20260906162308 64 103 3.0 6.0 0.00 0.00 0.00 38 1033.6
20260906161803 64 127 5.0 7.0 0.00 0.00 0.00 39 1033.6
20260906161302 63 72 8.0 8.0 0.00 0.00 0.00 39 1033.6
20260906160801 64 115 5.0 9.0 0.00 0.00 0.00 38 1033.9
20260906160255 65 161 7.0 10.0 0.00 0.00 0.00 37 1033.7
20260906155753 67 75 3.0 10.0 0.00 0.00 0.00 37 1033.6
20260906155248 66 133 4.0 13.0 0.00 0.00 0.00 37 1033.5
20260906154743 66 141 7.0 10.0 0.00 0.00 0.00 36 1033.6
20260906154239 64 95 8.0 10.0 0.00 0.00 0.00 37 1033.6
20260906153737 62 95 7.0 11.0 0.00 0.00 0.00 40 1033.3
20260906153231 60 79 6.0 9.0 0.00 0.00 0.00 41 1033.7
20260906152727 60 82 4.0 10.0 0.00 0.00 0.00 40 1033.5
20260906152221 60 117 7.0 11.0 0.00 0.00 0.00 38 1033.6
20260906151721 61 100 7.0 11.0 0.00 0.00 0.00 38 1033.9
20260906151217 61 102 4.0 10.0 0.00 0.00 0.00 37 1033.7
20260906150712 60 86 4.0 10.0 0.00 0.00 0.00 40 1033.7
20260906150207 60 58 4.0 7.0 0.00 0.00 0.00 42 1033.7
20260906145706 60 65 6.0 7.0 0.00 0.00 0.00 40 1033.7
20260906145206 60 89 6.0 9.0 0.00 0.00 0.00 39 1034.0
20260906144700 59 96 7.0 11.0 0.00 0.00 0.00 38 1034.0
20260906144155 59 82 9.0 11.0 0.00 0.00 0.00 39 1033.7
20260906143655 59 84 10.0 11.0 0.00 0.00 0.00 39 1033.7
20260906143152 60 88 12.0 14.0 0.00 0.00 0.00 37 1033.5
20260906142652 60 72 9.0 13.0 0.00 0.00 0.00 39 1033.9
20260906142147 59 114 5.0 11.0 0.00 0.00 0.00 40 1034.0
20260906141646 58 93 6.0 13.0 0.00 0.00 0.00 38 1033.7
20260906141141 58 94 11.0 11.0 0.00 0.00 0.00 38 1033.9
20260906140640 57 68 8.0 14.0 0.00 0.00 0.00 38 1033.7
20260906140135 57 84 8.0 14.0 0.00 0.00 0.00 39 1034.1
20260906135632 56 85 6.0 11.0 0.00 0.00 0.00 40 1033.7
20260906135128 55 101 5.0 12.0 0.00 0.00 0.00 40 1033.7
20260906134624 55 70 7.0 13.0 0.00 0.00 0.00 42 1034.0
20260906134119 56 63 2.0 5.0 0.00 0.00 0.00 42 1033.9
20260906133615 54 95 1.0 4.0 0.00 0.00 0.00 44 1033.6
20260906133115 54 87 5.0 8.0 0.00 0.00 0.00 45 1033.9
20260906132610 52 88 7.0 7.0 0.00 0.00 0.00 46 1033.6
20260906132106 51 89 4.0 7.0 0.00 0.00 0.00 47 1033.7
20260906131601 48 92 4.0 5.0 0.00 0.00 0.00 53 1033.5
20260906131056 48 82 5.0 6.0 0.00 0.00 0.00 53 1033.2
20260906130555 48 84 4.0 7.0 0.00 0.00 0.00 51 1033.5
20260906130051 50 101 3.0 6.0 0.00 0.00 0.00 48 1033.5
20260906125548 51 96 7.0 10.0 0.00 0.00 0.00 45 1033.3
20260906125043 50 81 5.0 10.0 0.00 0.00 0.00 46 1033.1
20260906124538 50 83 5.0 9.0 0.00 0.00 0.00 46 1033.2
20260906124033 51 78 5.0 13.0 0.00 0.00 0.00 45 1033.2
20260906123532 51 82 12.0 14.0 0.00 0.00 0.00 46 1032.9
20260906123027 50 69 10.0 13.0 0.00 0.00 0.00 46 1033.3
20260906122521 50 86 9.0 10.0 0.00 0.00 0.00 47 1032.9
20260906122018 51 78 13.0 13.0 0.00 0.00 0.00 45 1033.1
20260906121513 51 85 8.0 11.0 0.00 0.00 0.00 44 1032.9
20260906121009 51 82 5.0 12.0 0.00 0.00 0.00 43 1033.1
20260906120504 50 85 7.0 9.0 0.00 0.00 0.00 46 1033.1
20260906120002 51 104 4.0 8.0 0.00 0.00 0.00 47 1033.1
20260906115456 50 69 6.0 9.0 0.00 0.00 0.00 48 1032.9
20260906114956 50 98 7.0 9.0 0.00 0.00 0.00 47 1033.2
20260906114450 50 97 3.0 7.0 0.00 0.00 0.00 45 1033.1
20260906113947 51 91 3.0 6.0 0.00 0.00 0.00 46 1032.9
20260906113445 51 75 5.0 9.0 0.00 0.00 0.00 44 1032.9
20260906112941 51 105 7.0 7.0 0.00 0.00 0.00 40 1032.9
20260906112436 51 83 5.0 8.0 0.00 0.00 0.00 41 1032.9
20260906111932 51 71 7.0 8.0 0.00 0.00 0.00 42 1032.9
20260906111431 51 79 7.0 8.0 0.00 0.00 0.00 41 1032.8
20260906110926 50 85 5.0 7.0 0.00 0.00 0.00 43 1033.1
20260906110422 49 62 4.0 5.0 0.00 0.00 0.00 47 1033.3
20260906105920 50 43 2.0 3.0 0.00 0.00 0.00 44 1033.2
20260906105416 50 77 3.0 4.0 0.00 0.00 0.00 48 1032.9
20260906104912 50 86 3.0 5.0 0.00 0.00 0.00 50 1032.9
20260906104410 50 77 3.0 5.0 0.00 0.00 0.00 49 1032.9
20260906103910 50 100 2.0 5.0 0.00 0.00 0.00 48 1032.9
20260906103408 51 81 3.0 6.0 0.00 0.00 0.00 48 1032.8
20260906102904 51 78 4.0 6.0 0.00 0.00 0.00 46 1033.1
20260906102403 51 72 5.0 6.0 0.00 0.00 0.00 47 1032.9
20260906101858 51 87 4.0 6.0 0.00 0.00 0.00 46 1032.9
20260906101353 50 83 3.0 8.0 0.00 0.00 0.00 48 1032.9
20260906100849 50 82 4.0 7.0 0.00 0.00 0.00 52 1032.9
20260906100348 50 81 5.0 7.0 0.00 0.00 0.00 53 1032.8
20260906095843 51 88 4.0 6.0 0.00 0.00 0.00 52 1032.9
20260906095339 51 57 4.0 7.0 0.00 0.00 0.00 51 1033.2
20260906094838 50 70 4.0 7.0 0.00 0.00 0.00 54 1032.9
20260906094333 50 85 4.0 6.0 0.00 0.00 0.00 53 1033.1
20260906093829 51 108 4.0 11.0 0.00 0.00 0.00 51 1032.9
20260906093325 49 108 4.0 7.0 0.00 0.00 0.00 54 1033.1
20260906092819 51 61 0.0 4.0 0.00 0.00 0.00 51 1033.1
20260906092314 52 85 7.0 13.0 0.00 0.00 0.00 50 1032.7
20260906091809 52 85 11.0 11.0 0.00 0.00 0.00 49 1033.2
20260906091305 52 79 7.0 9.0 0.00 0.00 0.00 50 1033.1
20260906090802 52 70 6.0 11.0 0.00 0.00 0.00 51 1033.2
20260906090301 52 74 5.0 8.0 0.00 0.00 0.00 51 1032.9
20260906085801 52 73 4.0 8.0 0.00 0.00 0.00 52 1032.9
20260906085259 52 83 4.0 9.0 0.00 0.00 0.00 51 1033.2
20260906084754 51 76 4.0 6.0 0.00 0.00 0.00 53 1033.2
20260906084248 50 68 6.0 6.0 0.00 0.00 0.00 56 1033.1
20260906083743 50 87 4.0 5.0 0.00 0.00 0.00 55 1032.9
20260906083239 51 66 3.0 6.0 0.00 0.00 0.00 54 1033.1
20260906082733 52 97 4.0 7.0 0.00 0.00 0.00 50 1033.5
20260906082229 53 70 5.0 10.0 0.00 0.00 0.00 50 1033.3
20260906081725 52 109 4.0 10.0 0.00 0.00 0.00 51 1033.5
20260906081219 51 53 4.0 7.0 0.00 0.00 0.00 53 1033.1
20260906080716 53 112 7.0 9.0 0.00 0.00 0.00 51 1033.2
20260906080212 53 81 8.0 14.0 0.00 0.00 0.00 52 1033.2
20260906075706 53 66 7.0 13.0 0.00 0.00 0.00 50 1033.3
20260906075201 52 69 6.0 12.0 0.00 0.00 0.00 54 1033.2
20260906074656 52 71 9.0 12.0 0.00 0.00 0.00 54 1033.3
20260906074155 52 82 9.0 12.0 0.00 0.00 0.00 52 1033.2
20260906073650 53 88 7.0 11.0 0.00 0.00 0.00 51 1033.5
20260906073145 53 67 10.0 11.0 0.00 0.00 0.00 51 1033.3
20260906072641 53 100 7.0 10.0 0.00 0.00 0.00 52 1033.3
20260906072136 52 76 10.0 11.0 0.00 0.00 0.00 53 1033.3
20260906071633 52 76 6.0 10.0 0.00 0.00 0.00 53 1033.6
20260906071132 51 79 5.0 8.0 0.00 0.00 0.00 55 1033.5
20260906070629 51 61 4.0 5.0 0.00 0.00 0.00 54 1033.5
20260906070125 52 62 4.0 4.0 0.00 0.00 0.00 53 1033.7
20260906065624 53 59 3.0 6.0 0.00 0.00 0.00 50 1033.6
20260906065120 51 69 7.0 7.0 0.00 0.00 0.00 53 1033.7
20260906064615 52 72 4.0 6.0 0.00 0.00 0.00 52 1033.6
20260906064110 53 48 4.0 6.0 0.00 0.00 0.00 50 1033.6
20260906063605 52 52 5.0 6.0 0.00 0.00 0.00 53 1033.6
20260906063101 51 31 5.0 5.0 0.00 0.00 0.00 55 1033.6
20260906062557 50 15 3.0 6.0 0.00 0.00 0.00 56 1033.5
20260906062055 51 12 3.0 4.0 0.00 0.00 0.00 55 1033.5
20260906061552 52 28 3.0 4.0 0.00 0.00 0.00 51 1033.3
20260906061051 53 19 3.0 3.0 0.00 0.00 0.00 51 1033.5
20260906060548 55 54 3.0 3.0 0.00 0.00 0.00 47 1033.5
20260906060045 55 68 3.0 4.0 0.00 0.00 0.00 48 1033.3
20260906055540 54 84 2.0 2.0 0.00 0.00 0.00 48 1033.6
20260906055035 55 40 1.0 3.0 0.00 0.00 0.00 48 1033.5
20260906054530 54 73 2.0 3.0 0.00 0.00 0.00 49 1033.5
20260906054025 54 64 2.0 3.0 0.00 0.00 0.00 50 1033.5
20260906053522 54 74 2.0 3.0 0.00 0.00 0.00 51 1033.5
20260906053017 54 84 3.0 5.0 0.00 0.00 0.00 51 1033.7
20260906052512 54 62 3.0 5.0 0.00 0.00 0.00 52 1033.3
20260906052010 53 62 5.0 5.0 0.00 0.00 0.00 53 1033.7
20260906051505 53 54 3.0 4.0 0.00 0.00 0.00 54 1033.3
20260906051000 54 83 3.0 5.0 0.00 0.00 0.00 52 1033.6
20260906050500 54 62 4.0 5.0 0.00 0.00 0.00 52 1033.7
20260906045954 51 10 3.0 6.0 0.00 0.00 0.00 58 1033.5
20260906045453 51 43 5.0 7.0 0.00 0.00 0.00 58 1033.6
20260906044949 54 71 4.0 6.0 0.00 0.00 0.00 52 1033.7
20260906044444 53 64 5.0 5.0 0.00 0.00 0.00 53 1033.6
20260906043939 54 66 3.0 4.0 0.00 0.00 0.00 52 1033.2
20260906043435 55 91 3.0 4.0 0.00 0.00 0.00 50 1033.6
20260906042931 55 72 2.0 3.0 0.00 0.00 0.00 50 1033.7
20260906042430 54 111 2.0 3.0 0.00 0.00 0.00 51 1033.3
20260906041924 55 86 1.0 3.0 0.00 0.00 0.00 50 1033.6
20260906041421 55 115 2.0 3.0 0.00 0.00 0.00 50 1033.5
20260906040920 55 94 3.0 5.0 0.00 0.00 0.00 51 1033.3
20260906040416 54 52 3.0 3.0 0.00 0.00 0.00 51 1033.5
20260906035911 55 50 1.0 3.0 0.00 0.00 0.00 49 1033.3
20260906035406 57 92 3.0 3.0 0.00 0.00 0.00 45 1033.6
20260906034901 57 201 2.0 5.0 0.00 0.00 0.00 44 1033.5
20260906034356 56 262 2.0 3.0 0.00 0.00 0.00 46 1033.5
20260906033852 55 147 0.0 2.0 0.00 0.00 0.00 49 1033.3
20260906033351 55 40 1.0 2.0 0.00 0.00 0.00 50 1033.3
20260906032847 55 58 2.0 3.0 0.00 0.00 0.00 50 1033.3
20260906032343 55 98 1.0 4.0 0.00 0.00 0.00 51 1033.3
20260906031838 55 141 0.0 4.0 0.00 0.00 0.00 49 1033.2
20260906031333 55 107 0.0 3.0 0.00 0.00 0.00 50 1033.2
20260906030833 57 102 2.0 3.0 0.00 0.00 0.00 48 1033.1
20260906030329 58 50 0.0 5.0 0.00 0.00 0.00 45 1033.1
20260906025823 59 53 3.0 5.0 0.00 0.00 0.00 43 1032.9
20260906025317 59 245 2.0 9.0 0.00 0.00 0.00 43 1033.2
20260906024816 60 292 3.0 9.0 0.00 0.00 0.00 41 1032.8
20260906024315 61 251 4.0 11.0 0.00 0.00 0.00 40 1032.8
20260906023811 60 276 3.0 8.0 0.00 0.00 0.00 41 1032.7
20260906023306 61 252 7.0 10.0 0.00 0.00 0.00 41 1032.7
20260906022802 61 275 4.0 9.0 0.00 0.00 0.00 41 1032.6
20260906022257 60 275 2.0 6.0 0.00 0.00 0.00 42 1032.7
20260906021753 60 326 2.0 3.0 0.00 0.00 0.00 43 1032.8
20260906021252 61 335 3.0 4.0 0.00 0.00 0.00 42 1032.6
20260906020747 62 14 1.0 2.0 0.00 0.00 0.00 41 1032.6
20260906020246 62 285 2.0 3.0 0.00 0.00 0.00 40 1032.4
20260906015741 63 259 2.0 5.0 0.00 0.00 0.00 40 1032.2
20260906015239 63 318 2.0 3.0 0.00 0.00 0.00 39 1032.2
20260906014734 64 273 3.0 10.0 0.00 0.00 0.00 38 1032.3
20260906014230 64 273 5.0 9.0 0.00 0.00 0.00 38 1032.2
20260906013726 64 242 7.0 9.0 0.00 0.00 0.00 38 1032.3
20260906013226 64 276 3.0 7.0 0.00 0.00 0.00 38 1032.3
20260906012721 65 250 6.0 10.0 0.00 0.00 0.00 38 1032.3
20260906012216 65 267 2.0 6.0 0.00 0.00 0.00 38 1032.3
20260906011711 66 230 5.0 8.0 0.00 0.00 0.00 37 1032.0
20260906011205 66 246 4.0 8.0 0.00 0.00 0.00 36 1032.2
20260906010701 68 283 7.0 14.0 0.00 0.00 0.00 34 1032.0
20260906010158 69 351 5.0 6.0 0.00 0.00 0.00 34 1032.2
20260906005657 69 241 4.0 10.0 0.00 0.00 0.00 34 1032.0
20260906005156 70 236 6.0 14.0 0.00 0.00 0.00 34 1032.0
20260906004655 70 242 5.0 11.0 0.00 0.00 0.00 33 1032.2
20260906004150 70 322 6.0 13.0 0.00 0.00 0.00 33 1031.8
20260906003646 71 267 13.0 13.0 0.00 0.00 0.00 32 1032.0
20260906003141 72 280 2.0 12.0 0.00 0.00 0.00 33 1031.9
20260906002636 73 288 6.0 10.0 0.00 0.00 0.00 33 1031.9
20260906002131 71 264 8.0 14.0 0.00 0.00 0.00 33 1031.8
20260906001626 73 260 7.0 12.0 0.00 0.00 0.00 33 1031.8
20260906001126 71 329 5.0 13.0 0.00 0.00 0.00 34 1031.8
20260906000622 71 321 9.0 21.0 0.00 0.00 0.00 34 1031.6
20260906000117 72 221 2.0 13.0 0.00 0.00 0.00 33 1031.5
20260905235616 72 232 13.0 13.0 0.00 0.00 0.00 34 1031.8
20260905235111 72 288 12.0 22.0 0.00 0.00 0.00 34 1031.6
20260905234606 74 248 5.0 12.0 0.00 0.00 0.00 33 1031.5
20260905234102 75 236 15.0 15.0 0.00 0.00 0.00 32 1031.5
20260905233602 74 249 4.0 16.0 0.00 0.00 0.00 33 1031.4
20260905233056 76 245 5.0 17.0 0.00 0.00 0.00 31 1031.2